FW1657 Weather Reports


Display with metric or nautical units.
time (UTC)temp
F
wind
direction
speed
MPH
gust
MPH
rain 1hr
in
rain 24hr
in
rain mn
in
humidity
%
barometer
mb
20260505041527 49 9 0.0 2.0 0.00 0.05 0.00 94 1009.9
20260505040027 49 9 0.0 0.0 0.00 0.05 0.00 93 1009.9
20260505034526 49 9 2.0 4.0 0.00 0.05 0.00 93 1010.0
20260505033024 48 6 3.0 6.0 0.00 0.05 0.00 93 1010.1
20260505031538 49 12 3.0 4.0 0.00 0.05 0.00 92 1010.1
20260505030019 49 13 1.0 3.0 0.00 0.05 0.00 93 1010.3
20260505024530 49 13 2.0 5.0 0.00 0.05 0.00 93 1010.3
20260505023016 49 14 3.0 6.0 0.00 0.05 0.00 93 1010.6
20260505021519 49 2 2.0 7.0 0.00 0.05 0.00 93 1010.7
20260505020025 50 360 4.0 6.0 0.00 0.05 0.00 92 1010.5
20260505014511 50 18 4.0 7.0 0.00 0.05 0.00 92 1010.7
20260505013009 50 13 4.0 6.0 0.00 0.05 0.00 92 1010.8
20260505011509 50 14 3.0 6.0 0.00 0.05 0.00 92 1010.9
20260505010006 50 14 4.0 5.0 0.00 0.05 0.00 93 1011.1
20260505004508 50 17 4.0 6.0 0.00 0.05 0.00 93 1011.3
20260505003004 49 6 2.0 5.0 0.00 0.05 0.00 92 1011.4
20260505001503 49 9 3.0 5.0 0.00 0.05 0.00 92 1011.5
20260505000004 49 14 2.0 5.0 0.00 0.05 0.00 92 1011.5
20260504234600 49 22 2.0 4.0 0.00 0.05 0.00 92 1011.5
20260504233102 50 19 3.0 5.0 0.00 0.05 0.00 92 1011.5
20260504231558 50 23 3.0 7.0 0.00 0.05 0.00 92 1011.5
20260504230106 50 12 4.0 6.0 0.00 0.05 0.00 91 1011.6
20260504224553 51 9 4.0 6.0 0.00 0.05 0.00 91 1011.7
20260504223050 51 11 4.0 7.0 0.00 0.05 0.00 91 1012.0
20260504221558 52 10 4.0 7.0 0.00 0.05 0.00 91 1012.1
20260504220044 52 11 4.0 7.0 0.00 0.05 0.00 91 1012.2
20260504214542 52 15 4.0 6.0 0.00 0.05 0.05 91 1012.5
20260504213045 52 9 5.0 7.0 0.00 0.05 0.05 90 1012.7
20260504211545 52 15 5.0 8.0 0.00 0.05 0.05 90 1012.7
20260504210040 52 12 4.0 7.0 0.00 0.05 0.05 90 1012.8
20260504204541 53 11 4.0 8.0 0.00 0.05 0.05 90 1012.8
20260504203039 53 15 5.0 10.0 0.00 0.05 0.05 91 1012.9
20260504201538 53 13 6.0 9.0 0.00 0.05 0.05 91 1012.9
20260504200038 53 21 3.0 5.0 0.00 0.05 0.05 91 1013.0
20260504194538 53 4 3.0 5.0 0.00 0.05 0.05 91 1012.9
20260504193036 53 1 1.0 3.0 0.00 0.05 0.05 90 1012.8
20260504191540 53 358 2.0 6.0 0.00 0.05 0.05 90 1012.7
20260504190036 53 352 2.0 6.0 0.00 0.05 0.05 90 1012.5
20260504184535 53 341 3.0 7.0 0.00 0.05 0.05 90 1012.5
20260504183034 53 15 2.0 3.0 0.00 0.05 0.05 90 1012.7
20260504181535 53 15 2.0 3.0 0.00 0.05 0.05 90 1012.6
20260504180033 53 15 2.0 3.0 0.00 0.05 0.05 90 1012.4
20260504174532 54 15 1.0 3.0 0.00 0.05 0.05 90 1012.6
20260504173031 54 15 1.0 3.0 0.00 0.05 0.05 91 1012.6
20260504171530 54 15 1.0 5.0 0.00 0.05 0.05 91 1012.7
20260504081502 57 360 4.0 7.0 0.00 0.01 0.00 79 1014.1
20260504080109 57 17 2.0 4.0 0.00 0.01 0.00 79 1014.0